This is the latest recevied weather packets stored in our database for station/object KI4BSX. If no packets are shown the sender has not sent any weather packets the latest 10 day(s).
| Time | Temp. | Humidity | Pressure | Rain* | Wind** | Luminosity | Snow |
|---|---|---|---|---|---|---|---|
| 1778161038 | 17.78° C | 99% | 1013.1 hPa | 3.05 mm | - | - | - |
| 1778160735 | 17.78° C | 99% | 1012.9 hPa | 4.83 mm | - | - | - |
| 1778160433 | 17.78° C | 99% | 1013.2 hPa | 1.78 mm | - | - | - |
| 1778160129 | 17.78° C | 99% | 1012.5 hPa | 1.27 mm | - | - | - |
| 1778159827 | 17.78° C | 99% | 1013.2 hPa | 4.32 mm | - | - | - |
| 1778159524 | 17.78° C | 99% | 1013.1 hPa | 4.83 mm | - | - | - |
| 1778159220 | 17.78° C | 99% | 1013.4 hPa | 3.05 mm | - | - | - |
| 1778158919 | 17.22° C | 99% | 1013.7 hPa | 6.1 mm | - | - | - |
| 1778158617 | 17.22° C | 99% | 1014 hPa | 12.7 mm | - | - | - |
| 1778158314 | 17.22° C | 99% | 1014 hPa | 10.67 mm | - | - | - |
| 1778158010 | 17.22° C | 99% | 1013.9 hPa | 8.89 mm | - | - | - |
| 1778157708 | 17.22° C | 99% | 1014.2 hPa | 11.94 mm | - | - | - |
| 1778157406 | 17.22° C | 99% | 1013.4 hPa | 11.94 mm | - | - | - |
| 1778157103 | 17.78° C | 99% | 1013.5 hPa | 8.89 mm | - | - | - |
| 1778156798 | 17.22° C | 99% | 1013 hPa | 3.05 mm | - | - | - |
| 1778156494 | 17.78° C | 99% | 1012.8 hPa | 3.05 mm | - | - | - |
| 1778156190 | 17.78° C | 99% | 1012.8 hPa | 1.27 mm | - | - | - |
| 1778155886 | 17.78° C | 99% | 1013.1 hPa | 0 mm | - | - | - |
| 1778155583 | 17.22° C | 99% | 1012.4 hPa | 0 mm | - | - | - |
| 1778155279 | 17.22° C | 99% | 1012.1 hPa | 0 mm | - | - | - |
| 1778154976 | 17.22° C | 99% | 1012.1 hPa | 0 mm | - | - | - |
| 1778154671 | 17.22° C | 99% | 1012.1 hPa | 0 mm | - | - | - |
| 1778154368 | 17.22° C | 99% | 1012.4 hPa | 1.78 mm | - | - | - |
| 1778154065 | 17.22° C | 99% | 1013.1 hPa | 4.83 mm | - | - | - |
| 1778153762 | 17.22° C | 99% | 1013 hPa | 14.99 mm | - | - | - |
* Rain latest hour (hover to see other rain measurements)
** Current wind speed in m/s (hover to see current wind gust speed)